Weather History for LHBP - January, 2013

Change the Weather History Date:

Thursday, January 10, 2013

  Actual Average Record
Temperature  
Mean Temperature 26 °F -  
Max Temperature 30 °F 37 °F 60 °F (2015)
Min Temperature 23 °F 23 °F 5 °F (2009)
Degree Days  
Heating Degree Days 38    
Moisture  
Dew Point 27 °F    
Average Humidity 99    
Maximum Humidity 100    
Minimum Humidity 93    
Precipitation  
Precipitation 0.00 in - - ()
Sea Level Pressure  
Sea Level Pressure 29.90 in    
Wind  
Wind Speed 5 mph ()    
Max Wind Speed 10 mph    
Max Gust Speed -    
Visibility 0.4 miles    
Events Fog , Snow    
Averages and records for this station are not official NWS values.
T = Trace of Precipitation, MM = Missing Value Source: Averaged Metar Reports

Daily Weather History Graph

Daily Weather History Graph

Search for Another Location

Airport or City:

Trip Planner

Search our weather history database for the weather conditions in past years. The results will help you decide how hot, cold, wet, or windy it might be!

Date:

Astronomy

Jan. 10, 2013 Rise Set
Actual Time 7:28 AM CET 4:12 PM CET
Civil Twilight 6:53 AM CET 4:47 PM CET
Nautical Twilight 6:15 AM CET 5:26 PM CET
Astronomical Twilight 5:38 AM CET 6:03 PM CET
Moon 5:50 AM CET (1/10) 3:00 PM CET (1/10)
Length of Visible Light 9h 54m
Length of Day
8h 44m
Waning Crescent, 3% of the Moon is Illuminated
Jan 10
Waning Crescent
Jan 11
New
Jan 19
First Quarter
Jan 27
Full
Feb 3
Last Quarter

Hourly Weather History & Observations

Time (CET) Temp. Windchill Dew Point Humidity Pressure Visibility Wind Dir Wind Speed Gust Speed Precip Events Conditions
12:00 AM 24.8 °F 14.6 °F 23.0 °F 93% 30.09 in 0.2 mi ESE 10.4 mph - N/A Fog Light Freezing Fog
12:30 AM 23.0 °F 12.4 °F 23.0 °F 100% 30.09 in 0.2 mi ESE 10.4 mph - N/A Fog Light Freezing Fog
1:00 AM 23.0 °F 13.1 °F 23.0 °F 100% 30.09 in 0.2 mi ESE 9.2 mph - N/A Fog Light Freezing Fog
1:30 AM 23.0 °F 13.1 °F 23.0 °F 100% 30.06 in 0.2 mi ESE 9.2 mph - N/A Fog Light Freezing Fog
2:00 AM 23.0 °F 13.1 °F 23.0 °F 100% 30.04 in 0.2 mi ESE 9.2 mph - N/A Fog Light Freezing Fog
2:30 AM 23.0 °F 14.7 °F 23.0 °F 100% 30.06 in 0.4 mi ESE 6.9 mph - N/A Fog Light Freezing Fog
3:00 AM 23.0 °F 14.7 °F 23.0 °F 100% 30.04 in 0.3 mi ESE 6.9 mph - N/A Fog Light Freezing Fog
3:30 AM 23.0 °F 14.7 °F 23.0 °F 100% 30.01 in 0.2 mi ESE 6.9 mph - N/A Fog Light Freezing Fog
4:00 AM 23.0 °F 14.7 °F 23.0 °F 100% 30.01 in 0.2 mi ESE 6.9 mph - N/A Fog Light Freezing Fog
4:30 AM 23.0 °F 14.7 °F 23.0 °F 100% 29.98 in 0.1 mi ESE 6.9 mph - N/A Fog Light Freezing Fog
5:00 AM 24.8 °F 16.1 °F 23.0 °F 93% 29.95 in 0.1 mi SE 8.1 mph - N/A Fog Light Freezing Fog
5:30 AM 24.8 °F 17.9 °F 23.0 °F 93% 29.95 in 0.1 mi SE 5.8 mph - N/A Fog Light Freezing Fog
6:00 AM 24.8 °F 19.1 °F 23.0 °F 93% 29.95 in 0.1 mi SE 4.6 mph - N/A Fog Light Freezing Fog
6:30 AM 24.8 °F 20.5 °F 24.8 °F 100% 29.95 in 0.1 mi Variable 3.5 mph - N/A Fog Light Freezing Fog
7:30 AM 24.8 °F - 24.8 °F 100% 29.95 in 0.2 mi Variable 2.3 mph - N/A Fog Light Freezing Fog
8:00 AM 24.8 °F 20.5 °F 24.8 °F 100% 29.95 in 0.1 mi Variable 3.5 mph - N/A Fog Light Freezing Fog
8:30 AM 24.8 °F - 24.8 °F 100% 29.95 in 0.1 mi Variable 2.3 mph - N/A Fog , Snow Snow
9:00 AM 24.8 °F - 24.8 °F 100% 29.92 in 0.3 mi Variable 2.3 mph - N/A Fog , Snow Light Snow
9:30 AM 24.8 °F - 24.8 °F 100% 29.92 in 0.5 mi Variable 2.3 mph - N/A Fog , Snow Light Snow
10:00 AM 26.6 °F - 26.6 °F 100% 29.92 in 0.6 mi Variable 2.3 mph - N/A Snow Light Snow
10:30 AM 24.8 °F - 24.8 °F 100% 29.92 in 0.9 mi Variable 1.2 mph - N/A   Overcast
11:00 AM 28.4 °F - 28.4 °F 100% 29.89 in 0.9 mi Variable 1.2 mph - N/A   Mostly Cloudy
11:30 AM 26.6 °F - 26.6 °F 100% 29.89 in 0.9 mi Variable 1.2 mph - N/A   Mostly Cloudy
12:00 PM 26.6 °F - 26.6 °F 100% 29.89 in 0.8 mi Variable 2.3 mph - N/A Snow Light Snow
12:30 PM 26.6 °F - 26.6 °F 100% 29.89 in 0.8 mi Variable 2.3 mph - N/A Snow Light Snow
1:00 PM 26.6 °F - 26.6 °F 100% 29.86 in 1.1 mi Variable 1.2 mph - N/A   Overcast
1:30 PM 26.6 °F - 26.6 °F 100% 29.86 in 1.1 mi Variable 2.3 mph - N/A   Overcast
2:00 PM 28.4 °F - 28.4 °F 100% 29.86 in 1.1 mi Variable 2.3 mph - N/A   Overcast
2:30 PM 28.4 °F - 28.4 °F 100% 29.86 in 1.1 mi Variable 2.3 mph - N/A   Overcast
3:00 PM 28.4 °F - 28.4 °F 100% 29.83 in 0.9 mi Variable 2.3 mph - N/A   Overcast
3:30 PM 28.4 °F - 28.4 °F 100% 29.83 in 0.9 mi Variable 2.3 mph - N/A   Overcast
4:00 PM 28.4 °F - 28.4 °F 100% 29.83 in 0.6 mi Variable 2.3 mph - N/A   Overcast
4:30 PM 28.4 °F - 28.4 °F 100% 29.83 in 0.6 mi Calm Calm - N/A   Overcast
5:00 PM 28.4 °F - 28.4 °F 100% 29.83 in 0.6 mi Variable 1.2 mph - N/A   Overcast
5:30 PM 28.4 °F - 28.4 °F 100% 29.83 in 0.9 mi Variable 2.3 mph - N/A   Overcast
6:00 PM 28.4 °F 24.6 °F 28.4 °F 100% 29.83 in 0.3 mi Variable 3.5 mph - N/A Fog Light Freezing Fog
6:30 PM 30.2 °F - 30.2 °F 100% 29.80 in 0.3 mi Variable 2.3 mph - N/A Fog Light Freezing Fog
7:00 PM 30.2 °F 26.7 °F 30.2 °F 100% 29.80 in 0.1 mi Variable 3.5 mph - N/A Fog Light Freezing Fog
7:30 PM 30.2 °F - 30.2 °F 100% 29.80 in 0.1 mi Variable 2.3 mph - N/A Fog Light Freezing Fog
8:00 PM 30.2 °F 26.7 °F 30.2 °F 100% 29.80 in 0.1 mi Variable 3.5 mph - N/A Fog Light Freezing Fog
8:30 PM 30.2 °F - 30.2 °F 100% 29.80 in 0.2 mi Variable 2.3 mph - N/A Fog Light Freezing Fog
9:00 PM 30.2 °F 26.7 °F 30.2 °F 100% 29.80 in 0.2 mi Variable 3.5 mph - N/A Fog Light Freezing Fog
9:30 PM 30.2 °F 26.7 °F 30.2 °F 100% 29.80 in 0.2 mi Variable 3.5 mph - N/A Fog Light Freezing Fog
10:00 PM 30.2 °F - 30.2 °F 100% 29.80 in 0.2 mi Variable 1.2 mph - N/A Fog Light Freezing Fog
10:30 PM 30.2 °F - 30.2 °F 100% 29.80 in 0.2 mi Variable 2.3 mph - N/A Fog Light Freezing Fog
11:00 PM 30.2 °F - 30.2 °F 100% 29.80 in 0.2 mi Variable 2.3 mph - N/A Fog Light Freezing Fog
11:30 PM 30.2 °F - 30.2 °F 100% 29.77 in 0.2 mi Variable 2.3 mph - N/A Fog Light Freezing Fog